Ana Sayfa
METAR-TAF:

METAR-TAF

Havaalanları :

Wilbarger County Airport

Vernon, Teksas, Amerika Birleşik Devletleri

Enlem: 34-13-32N, Boylam: 099-17-01W, yükseklik: 386 m

Güncel hava durumu gözlemi

Rapor saat 20:35 UTC de 23 dakika önce yapıldı.
Rüzgar kuzeydoğudan 13 kt ve 18 kt'a kadar ani rüzgarlar
Sıcaklık 11°C
Nem 30%
Basınç 1030 hPa
Görüş mesafesi: 16.1 km
Açık gökyüzü

METAR: KF05 182035Z AUTO 04013G18KT 10SM CLR 11/M06 A3043 RMK AO1 T01131057

Saat: 14:58 (20:58 UTC)


TAF: eksik

4.000'den fazla havaalanı için hava durumu gözlemleri ve tahminleri (METAR ve TAF raporları).

Kullanılabilir istasyonlar harita üzerinde sarı ve kırmızı noktalarla gösterilir.

İstasyonun adını görmek için fareyi noktanın üzerinde gezdirin.

Sonrasında hava gözlem ve tahminlerini görmek için tıklayın.

Haritayı değiştirmek için: yaklaştırmak için siyah artı işaretli yeşil düğmeye ve uzaklaştırmak için de eksi işaretli düğmeye hızla tıklayın; bitişik haritalar için yeşil okları kullanın.


METAR-TAF: